Location: Kaarina
(60.4167°N, 22.4167°E)
Time: 02:35:17
(UTC+03:00)

IRAS Rocket - Pass Details

Date: 24 August 2019
Orbit: 847 x 878 km, 100.0° (Epoch: 18 October)

Event Time Altitude Azimuth Distance (km) Brightness Sun altitude
Exits shadow 23:27:29 21° 151° (SSE) 1,860 5.3 -14.4°
Maximum altitude 23:31:21 82° 65° (ENE) 888 4.3 -14.6°
Drops below altitude 10° 23:36:58 10° 340° (NNW) 2,524 8.0 -15.0°
Sets 23:39:21 0° 339° (NNW) 3,461 9.2 -15.1°
